Wind_Speed
21 22 22 22 22 22 23 23 24 24 24 24 25 25 25 25 26 26 26 26 27 28 28 28 27 26 25 25 24 24 23 23 22 21 19 18 18 17 16 17 17 17 17 18
22 22 22 22 23 22 23 23 24 24 24 24 25 25 26 26 26 26 26 26 26 26 27 27 26 26 25 24 24 23 21 20 20 20 18 18 17 16 16 16 16 17 18 18
22 22 23 22 23 23 22 22 23 24 24 25 25 26 26 26 26 27 26 26 26 26 26 25 25 25 25 23 22 21 20 19 19 18 16 16 16 15 15 14 15 16 16 17
24 23 23 24 24 24 23 23 24 25 25 26 26 26 26 26 27 27 26 26 26 26 26 26 26 25 24 23 22 21 20 18 17 16 16 16 15 14 13 13 13 14 15 15
25 25 25 24 24 24 24 24 24 25 26 26 26 26 25 26 27 27 26 26 26 26 25 25 25 24 22 22 21 20 19 18 17 16 16 15 14 13 13 13 13 14 14 14
26 26 26 25 24 24 24 24 24 25 26 26 27 27 26 26 26 26 26 25 26 26 25 25 24 22 22 21 20 18 18 17 16 16 16 14 13 13 12 12 13 13 13 14
25 25 24 24 24 24 24 25 25 26 27 27 27 27 26 25 25 26 25 25 25 25 25 24 23 22 21 20 18 18 17 17 16 16 15 14 13 12 12 12 12 13 14 14
25 25 24 24 25 25 25 26 26 27 27 27 27 26 25 25 25 26 25 25 25 25 24 24 23 22 20 19 17 17 17 16 15 14 14 13 11 11 11 12 13 13 13 14
26 26 26 26 27 27 27 27 28 28 28 27 27 25 25 25 25 25 24 24 24 24 24 23 22 20 18 16 15 16 16 15 14 13 12 12 11 10 11 12 12 13 13 14
27 27 27 27 28 28 28 29 29 29 28 27 26 25 25 24 24 24 24 23 23 23 23 22 20 18 17 15 14 14 13 13 12 11 10 10 9 10 11 11 12 13 13 13
28 27 28 28 28 29 29 29 29 29 28 28 26 25 25 25 25 25 24 24 23 22 21 20 19 17 16 14 13 13 12 12 10 10 10 9 9 10 11 11 13 13 13 13
29 29 29 29 30 30 30 30 29 29 28 27 26 25 26 26 26 25 25 23 21 20 19 18 17 16 14 13 12 11 10 10 9 8 8 9 9 10 11 12 13 13 13 13
30 29 29 30 31 30 30 30 29 28 27 27 26 26 26 26 25 24 22 21 20 19 18 17 16 15 13 12 11 10 9 9 8 8 9 9 9 10 11 12 13 14 14 14
31 31 31 31 31 31 31 30 30 29 28 27 26 26 26 25 24 23 21 20 20 18 17 16 15 14 13 12 10 10 10 9 8 8 9 9 10 11 11 11 12 13 13 14
31 32 32 32 31 31 31 30 30 29 28 26 26 26 25 25 23 22 21 20 19 17 16 16 15 14 13 12 10 9 9 8 7 8 8 9 10 11 11 12 13 13 13 14
31 31 31 31 31 31 31 30 30 29 28 27 27 26 25 24 22 21 20 19 17 16 16 15 14 13 12 11 10 8 7 7 7 7 8 9 10 11 11 13 13 13 13 14
32 31 31 31 31 31 31 30 29 28 27 26 25 24 23 22 21 19 18 17 16 15 14 14 13 12 11 10 8 7 6 7 7 7 8 9 10 11 12 13 13 13 14 14
33 32 31 31 31 30 29 28 28 27 26 25 24 23 22 20 19 18 17 16 16 15 14 13 12 11 10 9 8 7 7 7 7 7 9 10 11 12 12 13 12 13 14 14
32 31 31 31 30 28 27 27 26 26 25 24 23 21 21 20 19 19 17 16 16 15 14 13 12 11 9 9 8 8 7 7 8 8 10 11 11 12 12 13 13 13 13 13
31 30 30 30 29 28 26 26 25 25 24 23 22 20 19 19 18 18 17 16 16 15 14 12 11 10 9 9 8 8 8 8 8 10 10 11 11 12 12 12 12 13 13 13
30 30 30 30 29 28 26 25 24 23 23 22 21 20 20 19 19 18 17 16 15 14 13 12 11 10 10 9 9 8 8 8 9 10 10 10 11 11 11 11 11 12 13 14
31 30 30 29 28 27 26 25 24 23 23 23 22 21 20 19 18 17 16 15 14 13 12 11 11 10 10 9 9 8 8 8 8 9 9 10 10 11 11 10 11 12 13 14
30 30 29 29 28 27 26 25 25 24 23 23 22 21 20 18 17 16 16 14 13 12 12 11 10 10 9 10 9 9 9 8 8 8 8 9 9 10 10 10 11 12 13 14
31 30 30 29 28 27 26 25 25 24 23 22 22 20 19 18 16 16 15 14 13 12 11 11 10 9 9 9 9 9 8 8 8 8 8 8 8 9 9 10 11 12 13 13
31 30 29 29 28 27 26 25 25 24 23 22 21 20 19 18 17 16 15 13 13 12 12 12 11 10 10 9 9 8 8 8 8 8 7 7 8 8 9 10 11 12 13 13
31 30 29 29 28 27 26 26 25 25 24 23 21 21 20 18 17 16 14 14 13 12 12 12 12 11 10 9 9 8 8 8 7 6 6 6 7 8 9 10 11 12 13 13
31 29 29 28 27 27 26 25 25 24 23 23 22 21 20 18 17 16 15 14 14 13 12 12 11 11 11 10 9 9 8 7 6 6 6 6 7 8 9 10 12 13 13 13
Wind_Direction
316 316 317 316 313 311 311 309 309 311 312 313 313 313 313 314 314 315 316 314 314 314 314 314 315 314 312 309 312 312 310 309 308 308 306 305 306 305 306 304 304 304 305 306
317 317 316 316 313 311 312 310 309 310 311 313 314 315 315 315 315 315 314 314 315 317 317 317 317 317 315 313 314 315 315 312 309 310 309 305 305 305 306 307 308 309 309 310
317 315 314 314 316 313 311 310 310 311 312 312 313 314 314 315 314 316 315 314 314 316 317 317 318 317 315 315 317 318 316 312 311 309 310 308 304 305 306 307 311 313 314 314
316 315 315 317 315 312 310 310 310 310 312 313 313 314 314 314 315 314 314 315 318 317 317 317 318 317 316 316 318 316 316 314 311 308 310 309 308 307 308 311 314 317 319 318
315 314 315 316 314 311 309 308 309 310 311 311 314 315 315 314 315 315 316 317 319 319 318 319 319 318 316 320 319 317 319 318 315 313 313 312 310 309 311 315 320 322 321 321
314 314 316 317 316 315 313 312 311 311 313 314 315 315 316 316 316 317 318 320 322 321 319 319 319 317 316 320 320 319 321 322 320 318 319 315 313 312 315 318 319 320 320 322
311 312 313 315 317 316 315 316 314 313 315 315 316 317 317 318 319 319 320 321 322 323 323 321 319 317 317 320 321 321 322 324 322 321 321 319 318 318 318 319 319 320 321 323
311 311 311 312 313 314 315 315 315 315 315 315 317 318 318 319 320 320 320 321 322 323 323 322 321 321 320 321 321 322 324 325 325 326 325 326 324 321 319 317 317 319 321 324
310 310 309 309 310 311 312 312 313 313 313 314 316 315 315 317 319 320 320 320 321 322 323 323 324 323 322 322 322 324 325 326 329 328 328 328 325 323 322 322 319 320 321 324
304 304 305 306 307 307 308 309 311 311 310 311 313 313 313 315 318 318 318 320 321 322 323 324 325 325 324 323 321 323 323 325 327 330 332 332 330 330 331 330 328 326 326 328
300 299 300 301 303 305 305 306 308 309 309 310 311 311 311 312 315 315 315 317 319 320 322 323 325 325 324 323 323 325 326 328 331 334 335 337 336 337 336 334 332 332 332 332
299 299 299 300 302 303 303 304 306 307 307 308 308 309 310 310 311 312 312 314 315 317 318 321 325 326 325 322 323 327 332 335 335 334 334 337 339 340 339 339 336 336 337 337
297 298 299 301 301 301 301 302 304 305 304 305 306 308 309 310 310 310 311 311 313 314 316 319 321 322 324 323 321 324 329 332 331 333 333 335 337 339 339 340 341 341 342 342
296 297 298 300 299 299 300 301 302 302 301 302 303 305 306 307 309 308 307 308 309 310 311 313 316 317 319 321 317 317 319 323 326 332 333 337 340 343 345 346 344 344 344 344
296 296 297 298 298 299 299 299 300 300 299 298 300 302 303 304 306 306 306 306 306 305 306 307 310 312 313 313 311 308 312 318 323 331 337 341 345 346 347 348 347 346 346 346
294 294 295 297 298 298 297 296 296 297 298 297 298 299 300 302 303 303 303 304 302 301 301 303 305 307 307 308 306 300 301 309 318 324 331 338 341 341 341 341 341 343 344 344
291 292 293 295 296 296 295 295 296 296 297 297 298 299 300 301 301 300 300 299 297 296 296 297 299 299 299 302 303 298 295 302 309 315 323 330 334 335 336 336 339 342 342 343
289 291 293 295 297 298 297 297 296 296 295 297 297 298 298 298 299 299 297 295 294 294 294 293 292 292 293 293 294 293 295 297 301 307 317 325 329 331 332 333 336 339 341 342
288 289 291 293 295 296 296 297 298 298 298 297 297 297 296 295 296 295 294 293 294 292 289 286 285 285 285 285 283 288 288 291 298 304 312 319 324 328 331 333 336 338 339 340
286 287 289 291 293 294 294 295 295 295 296 296 296 295 294 293 292 291 289 290 290 288 284 279 278 277 278 278 277 279 284 289 297 301 308 315 322 328 331 332 334 338 341 341
284 285 286 288 290 291 292 292 292 292 293 293 293 292 291 291 290 289 288 288 286 283 278 274 272 272 273 271 270 275 280 285 294 301 306 313 320 327 331 333 335 339 342 343
281 283 284 285 285 286 288 289 289 289 290 290 290 291 290 288 286 286 285 283 279 275 273 271 268 267 267 265 265 270 277 282 288 295 304 313 320 325 330 333 337 340 342 343
279 280 281 282 281 282 284 285 286 286 287 287 287 287 285 284 281 280 279 277 273 269 266 264 263 264 263 260 260 266 273 278 286 296 304 314 323 328 331 333 336 340 342 343
277 277 276 277 278 278 279 280 282 282 283 283 283 281 280 278 276 274 272 270 268 265 261 259 260 261 260 259 262 267 272 277 283 294 304 313 321 327 330 334 338 340 343 344
276 276 274 274 276 278 278 277 277 277 279 280 279 277 276 273 269 269 267 264 261 259 259 258 256 254 254 255 260 263 269 278 285 291 299 309 317 324 329 333 336 339 342 345
273 274 274 276 277 277 278 276 274 274 275 274 274 273 271 266 262 262 261 259 258 256 256 256 254 250 248 250 255 258 267 275 278 283 294 306 316 322 327 331 335 337 340 344
273 273 274 275 275 275 276 275 274 273 273 273 272 269 265 261 259 257 256 255 254 253 253 252 250 245 242 244 252 259 259 261 267 274 286 301 313 320 326 331 335 338 341 344
Height
5828 5825 5821 5819 5816 5813 5810 5806 5803 5801 5797 5794 5789 5785 5781 5777 5773 5769 5764 5760 5756 5751 5747 5743 5739 5735 5731 5727 5725 5722 5719 5717 5715 5713 5710 5709 5707 5706 5704 5703 5701 5699 5697 5695
5824 5821 5818 5814 5811 5808 5805 5802 5799 5796 5793 5789 5784 5780 5776 5772 5768 5764 5760 5755 5751 5747 5742 5738 5734 5730 5726 5723 5721 5717 5715 5712 5710 5708 5706 5704 5703 5701 5700 5698 5697 5695 5692 5690
5820 5817 5814 5811 5808 5804 5801 5797 5794 5791 5789 5784 5780 5775 5771 5767 5763 5759 5755 5750 5746 5742 5738 5733 5729 5725 5722 5719 5716 5713 5711 5709 5706 5704 5701 5699 5698 5697 5695 5693 5693 5691 5688 5686
5815 5813 5809 5809 5802 5799 5796 5793 5789 5786 5782 5778 5775 5771 5766 5762 5758 5754 5750 5745 5741 5737 5733 5729 5725 5721 5717 5715 5711 5709 5707 5704 5702 5700 5698 5696 5694 5692 5691 5690 5689 5687 5685 5682
5811 5807 5804 5802 5798 5794 5791 5788 5785 5781 5777 5773 5769 5766 5762 5757 5753 5749 5745 5740 5736 5732 5728 5724 5720 5716 5713 5710 5708 5705 5703 5701 5698 5696 5694 5692 5690 5689 5688 5687 5685 5684 5682 5680
5806 5802 5799 5797 5793 5788 5786 5783 5780 5776 5772 5769 5765 5761 5758 5753 5749 5744 5740 5736 5732 5727 5723 5719 5715 5712 5709 5707 5704 5702 5699 5697 5695 5692 5690 5688 5687 5686 5685 5684 5682 5681 5679 5677
5802 5797 5794 5792 5788 5785 5782 5779 5775 5771 5768 5764 5760 5756 5752 5748 5744 5740 5736 5732 5727 5723 5719 5715 5711 5708 5705 5703 5701 5698 5696 5694 5692 5690 5688 5686 5685 5684 5682 5681 5680 5678 5676 5674
5797 5793 5792 5787 5783 5780 5777 5773 5770 5766 5763 5759 5755 5751 5747 5743 5739 5735 5731 5727 5723 5719 5715 5711 5707 5704 5701 5699 5698 5696 5693 5691 5689 5687 5685 5683 5682 5681 5680 5679 5677 5675 5674 5671
5792 5790 5785 5781 5778 5774 5771 5768 5765 5762 5758 5754 5751 5747 5743 5739 5735 5731 5727 5723 5719 5715 5712 5708 5704 5700 5698 5697 5695 5693 5691 5689 5687 5685 5683 5682 5681 5679 5678 5676 5674 5673 5671 5669
5786 5783 5780 5776 5773 5769 5766 5763 5759 5756 5752 5749 5745 5741 5738 5734 5731 5727 5723 5720 5716 5712 5709 5705 5701 5698 5696 5694 5692 5691 5689 5687 5686 5684 5682 5680 5679 5677 5676 5674 5672 5671 5668 5666
5780 5777 5774 5771 5767 5764 5760 5757 5754 5750 5746 5743 5739 5736 5733 5730 5726 5723 5719 5716 5713 5709 5706 5702 5699 5696 5694 5692 5690 5689 5687 5686 5684 5682 5681 5680 5678 5676 5675 5673 5671 5669 5666 5664
5773 5770 5767 5764 5761 5757 5754 5751 5748 5744 5740 5737 5733 5730 5727 5724 5721 5718 5715 5712 5709 5706 5703 5700 5697 5694 5692 5690 5689 5687 5686 5684 5683 5682 5681 5679 5678 5676 5674 5672 5669 5667 5664 5662
5765 5762 5759 5756 5754 5750 5747 5744 5740 5737 5734 5731 5728 5725 5722 5719 5716 5713 5710 5707 5705 5702 5700 5697 5695 5693 5691 5689 5687 5686 5685 5684 5683 5681 5680 5679 5677 5675 5673 5671 5668 5665 5663 5660
5757 5754 5752 5749 5747 5743 5740 5736 5733 5730 5727 5724 5722 5719 5716 5713 5710 5708 5705 5703 5701 5698 5696 5694 5693 5691 5689 5687 5686 5684 5683 5683 5682 5681 5679 5678 5676 5674 5672 5670 5667 5664 5662 5659
5749 5746 5744 5742 5739 5736 5732 5729 5726 5724 5721 5718 5715 5713 5710 5707 5705 5703 5700 5698 5696 5694 5693 5691 5690 5688 5687 5685 5684 5683 5682 5681 5681 5680 5678 5677 5675 5673 5671 5669 5667 5664 5661 5658
5741 5739 5736 5734 5731 5728 5725 5722 5719 5716 5714 5711 5709 5706 5704 5702 5699 5697 5696 5694 5692 5690 5689 5688 5687 5686 5684 5683 5682 5681 5681 5680 5679 5678 5677 5676 5674 5673 5671 5668 5666 5663 5660 5657
5732 5730 5728 5726 5723 5720 5717 5715 5712 5709 5707 5705 5703 5700 5698 5696 5694 5692 5691 5689 5688 5687 5686 5685 5684 5683 5682 5681 5680 5680 5679 5679 5678 5677 5676 5675 5673 5672 5669 5667 5664 5661 5659 5656
5723 5721 5719 5717 5715 5712 5710 5707 5705 5702 5700 5698 5696 5694 5692 5690 5689 5688 5686 5685 5684 5683 5682 5681 5681 5680 5679 5678 5678 5678 5678 5677 5676 5676 5675 5673 5672 5670 5667 5665 5663 5660 5657 5655
5715 5713 5711 5709 5707 5704 5702 5700 5697 5695 5693 5691 5690 5688 5687 5685 5684 5683 5682 5681 5680 5679 5679 5678 5677 5677 5676 5676 5676 5676 5675 5675 5675 5674 5673 5671 5670 5668 5665 5663 5661 5658 5656 5653
5706 5704 5703 5701 5699 5697 5695 5693 5691 5689 5687 5685 5684 5682 5681 5680 5679 5678 5677 5676 5675 5675 5675 5674 5674 5674 5674 5674 5674 5674 5673 5673 5673 5672 5670 5669 5667 5665 5663 5661 5659 5656 5654 5651
5698 5696 5694 5693 5691 5689 5687 5686 5684 5682 5681 5679 5678 5677 5676 5675 5674 5673 5672 5672 5671 5670 5670 5670 5671 5671 5671 5671 5671 5671 5671 5670 5670 5669 5668 5667 5665 5663 5661 5659 5657 5655 5652 5649
5689 5687 5686 5685 5683 5682 5680 5679 5677 5676 5675 5673 5672 5671 5670 5669 5668 5667 5667 5667 5666 5666 5666 5666 5667 5667 5667 5668 5668 5668 5668 5667 5667 5667 5666 5664 5663 5661 5659 5657 5655 5653 5650 5647
5679 5678 5677 5676 5675 5674 5673 5671 5670 5669 5668 5667 5666 5665 5664 5663 5663 5662 5662 5662 5662 5662 5662 5663 5663 5664 5664 5664 5664 5664 5665 5665 5664 5664 5663 5662 5660 5658 5657 5655 5653 5651 5648 5645
5670 5669 5668 5667 5666 5665 5665 5664 5663 5662 5661 5660 5659 5658 5658 5658 5658 5657 5657 5657 5658 5658 5659 5659 5659 5660 5660 5661 5661 5661 5661 5662 5661 5661 5660 5659 5658 5656 5655 5653 5651 5649 5646 5643
5660 5660 5659 5658 5657 5657 5656 5656 5655 5655 5654 5653 5653 5652 5652 5652 5652 5652 5653 5653 5653 5654 5655 5655 5656 5656 5657 5657 5658 5658 5658 5658 5658 5658 5657 5657 5656 5655 5653 5651 5649 5646 5644 5641
5651 5650 5650 5649 5649 5648 5648 5648 5647 5647 5647 5646 5646 5646 5646 5646 5646 5647 5648 5648 5649 5650 5651 5651 5652 5653 5653 5654 5655 5655 5655 5655 5655 5655 5655 5654 5654 5653 5651 5649 5647 5644 5642 5639
5641 5641 5641 5641 5640 5640 5639 5639 5639 5639 5639 5639 5639 5640 5640 5640 5641 5642 5643 5644 5645 5646 5647 5647 5648 5649 5650 5651 5651 5652 5652 5652 5652 5653 5653 5652 5651 5650 5649 5647 5645 5643 5640 5638